Vertical_Velocity
-2 0 -2 -0 -3 -1 0 -0 -1 -1 -1 0 1 -1 -1 -0 -3 -0 -0 -1 0 -1 -1 1 -0 -0 2 2 -31 8 -2 -5 -3 0 1 -1 8 1 3 3 8 12 -6 2 -3 -2 -3
1 -2 -2 0 -2 -1 1 -1 -3 -1 -0 -2 -0 3 -2 -1 1 -3 -0 -2 -1 -0 -0 0 0 7 4 16 -12 7 -13 -2 -8 7 2 11 0 -4 2 0 13 -7 1 -7 -2 -4 -1
-1 -1 1 -0 1 1 -3 -4 -2 -2 -2 -1 -1 3 2 -2 -1 -0 -2 -2 -2 -0 -1 -0 -0 8 7 -51 -0 29 10 1 4 -2 2 1 2 19 4 1 -11 -1 11 -1 -5 -7 -7
-0 -1 -1 1 -2 -1 -0 -4 -7 -5 -0 1 1 0 6 1 0 1 -1 -1 -1 -2 -1 -1 1 8 -7 -17 -18 4 -1 -2 0 -4 2 -4 7 5 13 -5 -4 12 15 10 -19 2 -21
-1 -1 -0 -1 -2 -2 -2 -1 -1 -4 -1 -1 -2 -0 3 1 -0 0 0 -0 -2 -1 -4 1 0 3 -21 -3 -11 -12 3 10 3 -3 -6 -4 9 -0 5 8 6 3 -2 3 -4 -1 1
-2 -2 -2 -2 -1 -1 -0 0 0 -2 -2 -1 -3 3 1 -1 -1 -0 -1 1 2 1 -2 7 -2 36 -6 -10 -12 -15 -10 -2 2 8 9 10 9 6 8 12 -11 -6 5 1 -2 -22 4
-2 -2 -1 -1 -1 -3 -2 -1 -1 0 0 -2 0 5 -3 -1 -4 0 -3 -6 3 5 14 -28 -16 -15 7 -5 11 18 1 14 17 21 8 -2 12 -6 -15 -5 -5 2 5 0 -7 -10 17
-0 -1 -2 -3 -3 -3 -3 -3 -1 -1 -2 -1 3 8 -1 3 4 1 -2 -2 2 15 -4 1 -16 28 -20 33 21 -12 31 26 20 -2 8 22 -5 -17 1 4 6 4 3 -10 -9 -3 20
-3 -1 0 -1 -2 -1 -0 -2 1 -2 -3 -0 -5 -10 2 6 4 -2 -5 -8 6 -0 6 -23 -8 -1 -16 32 -16 -15 15 -3 -2 11 -1 -4 -44 4 9 1 12 -3 2 -3 -2 -4 -4
-1 2 1 1 2 1 0 -0 -2 1 1 8 -2 -11 2 10 3 -4 11 -0 13 -8 8 -20 -3 -48 -3 3 -7 -27 11 -7 16 -7 -1 -10 -16 3 5 0 10 9 -5 3 3 15 -4
-0 0 -1 -2 -3 -3 -3 -2 -1 -1 0 6 -3 -13 -2 -10 -2 9 2 -13 3 3 8 -9 -14 -24 -9 5 -48 -32 -27 10 -5 -13 34 -51 3 5 10 -26 7 -33 4 2 2 3 16
-4 -3 -2 -2 -1 -2 -1 -1 -2 -1 -2 4 2 3 -24 -2 -4 -3 4 -4 -2 12 -6 -6 3 -2 19 11 -4 -7 8 21 -1 13 5 -17 -10 13 -23 -8 2 -7 15 7 4 7 15
1 0 0 -1 -1 -2 -2 3 1 -1 -2 -1 0 -1 -3 15 2 -5 4 -1 9 7 -8 -12 -2 -1 -2 -4 6 12 2 14 3 21 5 3 -11 -6 13 21 8 21 18 2 15 16 -17
-0 0 2 1 -1 -1 -1 -0 -1 -1 1 -0 0 2 -2 -4 12 3 -1 8 10 -3 -5 -10 3 -5 3 3 -11 -1 7 6 7 12 3 1 8 7 -17 -2 -13 -8 5 -0 -6 -2 -16
-1 1 -0 -0 -1 -1 -1 4 -3 -2 -2 -3 -2 -7 -6 -4 8 -3 8 6 -3 -0 1 7 -11 2 -6 -1 11 8 0 -4 -9 -0 8 10 -14 -6 9 -2 27 -35 15 -26 13 -1 13
-1 -2 1 -1 0 -1 -0 -1 2 -1 -2 0 4 6 -14 7 -1 1 6 -5 0 3 4 3 10 9 3 -2 -2 -7 3 -2 -8 3 3 -25 8 -8 -20 25 0 19 -12 17 4 9 2
-1 -1 0 0 1 1 1 -0 2 -0 -3 -1 7 3 2 -2 4 4 0 -3 -1 -4 13 18 1 1 -1 4 7 1 -3 -18 -1 -8 4 5 21 -46 29 -1 -6 15 7 8 8 -1 -5
1 -1 -1 -0 -1 -1 0 -1 -1 9 -2 -4 5 2 9 12 6 -0 1 -2 1 -5 -4 0 9 6 5 -0 1 3 1 3 0 3 1 5 5 1 -25 -22 1 3 -5 -1 11 -13 -3
1 -2 -2 0 -1 -0 0 -3 2 3 -2 11 2 -3 3 11 2 0 -2 -3 5 2 -4 -2 0 6 -0 4 12 5 -1 1 -3 0 3 4 -2 0 -1 5 -3 10 -8 2 1 6 -8
-3 0 -5 2 3 -1 -0 -1 -1 4 -0 5 2 2 -2 6 -3 8 2 -6 -1 -5 -3 1 0 9 7 1 -4 -3 -4 -9 2 -1 -0 -0 0 6 5 6 9 -2 -2 -1 10 12 -11
-1 -3 -0 -5 1 2 -2 -1 -1 3 5 5 2 -5 -5 -1 -2 1 8 5 0 -1 -0 4 -8 5 5 4 -1 -2 -3 -8 -6 -4 2 -5 1 7 -4 -1 3 4 2 -3 9 -13 11
0 -1 -1 -0 -3 2 3 0 -1 -2 7 10 0 -0 -2 -3 2 8 -2 -10 3 -11 17 -10 12 -4 3 6 2 -2 10 4 6 -8 1 0 -5 3 -6 -2 3 0 -3 0 -0 -5 5
-1 0 -1 0 0 -2 0 1 3 3 2 0 -7 -7 22 -8 -2 10 -9 -13 -7 7 -14 2 4 11 4 -10 5 2 9 1 4 8 -1 2 2 2 -12 1 -1 -4 -9 -2 -4 0 10
-0 -1 -1 -1 0 -0 -1 3 2 6 2 3 -1 12 10 -11 7 -2 2 7 -0 -5 5 -11 7 18 -38 0 -1 3 5 2 5 -7 4 1 4 2 -5 1 7 -23 -1 9 10 -5 -1
1 1 0 -0 -1 1 -0 -2 -1 3 6 3 6 14 1 -3 0 -1 0 2 -2 -7 5 11 -13 -0 22 -4 2 2 1 5 -7 -3 -0 4 3 -0 4 1 -12 -11 -20 6 16 -29 -2
0 0 1 0 1 -1 0 1 2 0 5 3 -1 16 17 6 -15 2 6 4 1 -2 -3 -12 -21 -9 1 5 4 2 -3 -5 -6 -3 1 6 5 8 6 7 -3 -25 -15 -2 7 -16 -4
-0 1 -0 -0 0 -0 1 0 -1 1 2 -2 -3 9 18 9 -17 8 -2 1 7 1 3 -0 -8 -2 10 0 3 3 -7 -2 4 3 -3 2 2 -1 -1 -0 -9 -13 -7 5 40 -50 -1
1 -1 2 0 -1 0 -1 1 1 1 1 0 -13 0 23 8 -23 2 -8 6 -3 6 7 -30 6 -2 4 8 5 -5 4 -9 11 -9 -6 6 9 -1 5 8 -2 -3 8 22 -17 -5 2
2 -1 -2 -0 2 -0 1 -0 3 2 3 4 -7 2 12 26 -23 -3 -6 -5 -0 -17 29 -2 -8 -1 -4 3 3 3 2 3 -0 -8 -4 4 0 -1 -3 -9 -8 -7 -3 -3 2 -1 -2
Height
1492 1491 1490 1489 1488 1487 1485 1484 1483 1483 1482 1481 1480 1480 1478 1477 1477 1477 1477 1478 1479 1480 1482 1483 1484 1487 1488 1486 1477 1478 1478 1481 1481 1482 1483 1484 1485 1485 1481 1479 1477 1470 1467 1464 1464 1463 1460
1490 1489 1488 1487 1486 1485 1483 1482 1481 1480 1478 1478 1477 1476 1476 1475 1474 1473 1474 1474 1475 1476 1477 1479 1482 1484 1483 1474 1475 1477 1478 1478 1480 1481 1480 1480 1479 1479 1476 1473 1470 1468 1463 1460 1459 1458 1459
1488 1487 1486 1485 1484 1483 1481 1479 1478 1477 1475 1474 1474 1473 1473 1472 1471 1470 1470 1470 1470 1471 1473 1475 1478 1478 1472 1458 1469 1474 1475 1476 1477 1478 1478 1477 1478 1477 1474 1471 1469 1465 1462 1458 1455 1454 1454
1486 1485 1485 1484 1482 1480 1478 1477 1475 1474 1472 1470 1469 1469 1469 1469 1469 1468 1467 1466 1467 1468 1470 1471 1474 1473 1457 1458 1465 1463 1468 1471 1473 1473 1475 1477 1475 1474 1474 1472 1467 1464 1460 1462 1453 1453 1451
1485 1483 1482 1481 1479 1477 1475 1474 1472 1470 1468 1465 1465 1465 1465 1465 1465 1465 1464 1464 1464 1464 1466 1469 1471 1471 1455 1450 1452 1458 1464 1467 1469 1469 1470 1473 1476 1474 1474 1473 1474 1462 1461 1455 1452 1446 1444
1483 1481 1479 1478 1476 1474 1472 1470 1468 1466 1463 1461 1460 1461 1462 1463 1463 1463 1462 1461 1460 1460 1462 1466 1467 1471 1450 1440 1445 1446 1455 1461 1464 1466 1467 1468 1470 1470 1466 1463 1458 1458 1454 1452 1450 1441 1435
1481 1478 1476 1475 1473 1471 1469 1466 1463 1461 1459 1458 1457 1457 1459 1459 1461 1460 1461 1460 1461 1460 1456 1446 1444 1436 1427 1434 1444 1440 1447 1454 1458 1461 1453 1458 1465 1455 1442 1449 1449 1444 1442 1442 1435 1430 1433
1480 1477 1474 1472 1470 1468 1466 1463 1461 1458 1457 1456 1455 1454 1454 1456 1458 1458 1459 1457 1456 1455 1448 1442 1438 1434 1434 1437 1438 1438 1442 1444 1448 1440 1450 1454 1444 1426 1447 1441 1444 1444 1444 1439 1430 1426 1426
1478 1476 1473 1471 1469 1466 1464 1461 1459 1456 1455 1454 1453 1451 1451 1453 1456 1456 1455 1455 1454 1453 1448 1435 1429 1427 1429 1436 1429 1431 1432 1432 1432 1436 1435 1436 1414 1436 1435 1437 1440 1434 1435 1431 1433 1432 1427
1476 1474 1471 1468 1466 1464 1461 1459 1457 1455 1453 1453 1451 1449 1448 1452 1456 1453 1454 1451 1453 1453 1445 1424 1417 1410 1419 1425 1423 1424 1423 1425 1427 1420 1423 1424 1417 1425 1426 1428 1429 1430 1420 1425 1428 1433 1440
1474 1471 1468 1466 1464 1461 1459 1457 1455 1453 1452 1451 1451 1449 1448 1449 1448 1452 1453 1452 1452 1454 1442 1403 1402 1402 1402 1410 1399 1406 1419 1421 1413 1409 1420 1413 1410 1414 1416 1410 1418 1413 1421 1420 1421 1427 1429
1471 1468 1465 1463 1461 1459 1457 1456 1454 1453 1451 1451 1450 1450 1450 1451 1451 1452 1451 1452 1454 1455 1433 1403 1390 1394 1398 1398 1402 1405 1405 1417 1410 1411 1407 1403 1401 1404 1402 1401 1406 1410 1418 1418 1416 1419 1430
1467 1465 1462 1460 1458 1457 1456 1454 1453 1452 1450 1450 1450 1450 1451 1452 1451 1450 1452 1453 1454 1446 1420 1404 1392 1394 1395 1393 1393 1402 1402 1404 1407 1414 1412 1405 1396 1392 1399 1401 1398 1404 1409 1423 1428 1427 1422
1463 1461 1458 1457 1456 1455 1454 1453 1452 1450 1450 1449 1448 1449 1449 1450 1452 1451 1452 1454 1452 1430 1426 1403 1404 1406 1419 1415 1391 1388 1393 1398 1398 1398 1399 1408 1396 1389 1383 1382 1387 1390 1398 1413 1428 1422 1413
1458 1456 1454 1452 1452 1451 1451 1451 1451 1450 1449 1448 1448 1448 1448 1449 1450 1452 1454 1450 1438 1429 1423 1414 1408 1413 1406 1407 1412 1394 1384 1387 1393 1403 1401 1393 1384 1382 1382 1384 1387 1384 1389 1388 1401 1396 1408
1452 1449 1448 1447 1447 1447 1448 1449 1449 1449 1448 1448 1449 1448 1445 1447 1449 1451 1452 1442 1437 1432 1427 1424 1425 1424 1414 1411 1420 1422 1403 1395 1391 1388 1398 1392 1394 1375 1373 1377 1375 1377 1378 1393 1390 1414 1413
1445 1442 1442 1442 1443 1443 1444 1446 1447 1448 1448 1448 1449 1448 1444 1444 1448 1451 1445 1439 1434 1431 1431 1429 1424 1422 1417 1416 1418 1427 1424 1422 1422 1413 1401 1390 1394 1371 1378 1371 1368 1367 1374 1375 1373 1385 1407
1439 1436 1436 1437 1438 1440 1441 1443 1444 1446 1447 1448 1449 1447 1443 1443 1447 1445 1441 1439 1435 1431 1430 1428 1428 1421 1416 1415 1417 1424 1430 1427 1417 1422 1418 1416 1402 1382 1377 1359 1364 1358 1360 1360 1380 1386 1378
1436 1433 1434 1434 1436 1437 1438 1440 1442 1444 1445 1448 1447 1445 1442 1439 1440 1439 1439 1437 1434 1431 1428 1427 1423 1422 1420 1416 1419 1420 1419 1423 1425 1423 1421 1425 1417 1399 1371 1376 1363 1358 1358 1354 1352 1356 1375
1438 1435 1433 1434 1434 1434 1436 1437 1440 1441 1444 1447 1447 1443 1442 1441 1439 1436 1435 1434 1433 1430 1428 1425 1422 1420 1420 1415 1414 1413 1417 1416 1417 1420 1421 1428 1418 1415 1397 1391 1398 1383 1353 1347 1357 1370 1366
1439 1436 1434 1434 1434 1433 1434 1435 1437 1440 1441 1445 1445 1440 1436 1433 1436 1435 1433 1430 1427 1425 1425 1424 1421 1419 1419 1418 1413 1410 1404 1403 1404 1406 1406 1420 1414 1407 1403 1397 1390 1379 1363 1353 1337 1346 1367
1440 1437 1435 1433 1433 1433 1433 1433 1435 1437 1440 1442 1441 1439 1434 1429 1427 1426 1425 1423 1422 1419 1419 1420 1419 1413 1411 1410 1408 1408 1404 1402 1402 1402 1405 1412 1403 1393 1392 1389 1382 1382 1372 1359 1347 1338 1326
1441 1438 1436 1434 1433 1432 1432 1432 1433 1435 1436 1437 1436 1436 1435 1426 1423 1422 1419 1417 1418 1416 1412 1410 1409 1407 1408 1406 1403 1399 1398 1396 1393 1393 1397 1403 1403 1397 1385 1377 1382 1383 1357 1346 1341 1331 1324
1441 1438 1436 1434 1433 1432 1431 1431 1431 1432 1432 1433 1433 1434 1431 1420 1420 1416 1414 1412 1408 1407 1407 1409 1408 1407 1403 1402 1399 1396 1394 1392 1388 1382 1385 1390 1394 1392 1388 1386 1378 1357 1348 1345 1332 1316 1314
1439 1437 1436 1434 1433 1432 1431 1430 1429 1429 1429 1428 1429 1429 1426 1417 1416 1412 1410 1408 1404 1402 1399 1397 1396 1398 1399 1401 1403 1394 1389 1389 1380 1379 1379 1380 1382 1383 1383 1368 1359 1354 1344 1343 1330 1318 1308
1436 1435 1433 1432 1431 1430 1429 1428 1428 1427 1427 1425 1423 1424 1421 1414 1407 1409 1407 1405 1402 1399 1395 1392 1392 1395 1396 1396 1396 1388 1383 1378 1370 1363 1363 1367 1369 1374 1371 1370 1355 1337 1335 1332 1326 1331 1317
1432 1431 1429 1428 1427 1426 1426 1424 1424 1423 1422 1421 1417 1418 1417 1407 1402 1406 1401 1398 1397 1396 1390 1388 1387 1390 1392 1390 1386 1381 1372 1369 1362 1359 1354 1357 1358 1362 1361 1354 1334 1321 1323 1326 1333 1321 1309
1427 1426 1424 1423 1422 1421 1420 1419 1418 1417 1417 1416 1410 1411 1410 1399 1392 1395 1394 1392 1390 1390 1385 1378 1386 1381 1382 1377 1373 1368 1361 1355 1349 1341 1339 1343 1343 1345 1347 1346 1337 1314 1310 1312 1306 1304 1306
1421 1419 1418 1417 1415 1414 1413 1413 1412 1411 1410 1409 1402 1404 1402 1397 1387 1384 1381 1379 1379 1378 1378 1375 1371 1371 1369 1363 1357 1351 1348 1343 1338 1328 1329 1330 1324 1325 1334 1316 1312 1299 1294 1301 1300 1296 1296